Location: Owatonna
(44.0840°N, 93.2260°W)
Time: 04:14:17
(UTC-05:00)

Tiangong 1 - Visible Passes

Search period start: 06 July 2015 00:00
Search period end: 16 July 2015 00:00
Orbit: 373 x 390 km, 42.8° (Epoch: 05 July)

Date Brightness Start Highest point End Pass type
(mag) Time Alt. Az. Time Alt. Az. Time Alt. Az.
06 Jul 1.0 22:22:13 10° W 22:25:21 70° S 22:27:41 16° E visible
06 Jul 3.3 23:58:53 10° W 23:59:49 18° W 23:59:49 18° W visible
07 Jul 1.0 22:58:19 10° W 23:01:26 59° S 23:01:52 52° SSE visible
08 Jul 1.0 21:57:46 10° W 22:00:55 69° S 22:03:51 11° E visible
08 Jul 2.9 23:34:31 10° W 23:35:59 22° WSW 23:35:59 22° WSW visible
09 Jul 1.4 22:33:51 10° W 22:36:54 47° SSW 22:37:55 32° SE visible
10 Jul 1.2 21:33:13 10° W 21:36:21 61° S 21:39:28 10° ESE visible
10 Jul 2.9 23:10:09 10° W 23:11:57 21° SW 23:11:57 21° SW visible
11 Jul 2.0 22:09:19 10° W 22:12:13 34° SSW 22:13:52 20° SSE visible
12 Jul 3.2 22:45:57 10° WSW 22:47:53 15° SSW 22:47:53 15° SSW visible
13 Jul 2.6 21:44:46 10° W 21:47:25 24° SSW 21:49:47 11° SSE visible
